Location: Perryvale
(54.4667°N, 113.3833°W)
Time: 22:53:07
(UTC+00:00)

Vanguard 1 - Pass Details

Date: 23 May 2024
Orbit: 652 x 3825 km, 34.2° (Epoch: 13 June)

Event Time Altitude Azimuth Distance (km) Brightness Sun altitude
Rises 05:59:53 0° 245° (WSW) 5,082 13.7 -12.4°
Reaches altitude 10° 06:03:05 10° 236° (SW) 4,465 13.3 -12.6°
Maximum altitude 06:14:32 35° 177° (S) 3,936 12.6 -13.1°
Drops below altitude 10° 06:31:54 10° 122° (ESE) 6,730 13.9 -13.8°
Sets 06:38:16 0° 116° (ESE) 7,927 14.3 -14.0°
